TimePST,TemperatureF,Dew PointF,Humidity,Sea Level PressureIn,VisibilityMPH,Wind Direction,Wind SpeedMPH,Gust SpeedMPH,PrecipitationIn,Events,Conditions,WindDirDegrees,DateUTC
12:15 AM,42.8,39.2,87,30.34,10.0,WSW,6.9,-,N/A,,Overcast,240,2013-11-13 08:15:00
12:35 AM,42.8,39.2,87,30.33,10.0,WSW,6.9,-,N/A,,Overcast,240,2013-11-13 08:35:00
12:55 AM,42.8,39.2,87,30.34,10.0,WSW,6.9,-,N/A,,Overcast,250,2013-11-13 08:55:00
1:15 AM,42.8,39.2,87,30.34,7.0,WSW,5.8,-,N/A,,Overcast,250,2013-11-13 09:15:00
1:35 AM,42.8,39.2,87,30.34,5.0,WSW,5.8,-,N/A,,Overcast,250,2013-11-13 09:35:00
1:55 AM,42.8,39.2,87,30.34,5.0,WSW,6.9,-,N/A,,Overcast,250,2013-11-13 09:55:00
2:15 AM,42.8,39.2,87,30.34,4.0,WSW,8.1,-,N/A,,Overcast,240,2013-11-13 10:15:00
2:35 AM,41.0,39.2,93,30.34,3.0,SW,4.6,-,N/A,,Overcast,220,2013-11-13 10:35:00
2:55 AM,41.0,39.2,93,30.33,3.0,WSW,4.6,-,N/A,,Overcast,240,2013-11-13 10:55:00
3:15 AM,41.0,39.2,93,30.33,4.0,Calm,Calm,-,N/A,,Overcast,0,2013-11-13 11:15:00
3:35 AM,41.0,39.2,93,30.33,6.0,West,5.8,-,N/A,,Overcast,280,2013-11-13 11:35:00
3:55 AM,41.0,39.2,93,30.33,5.0,Calm,Calm,-,N/A,,Overcast,0,2013-11-13 11:55:00
4:15 AM,41.0,39.2,93,30.33,8.0,Calm,Calm,-,N/A,,Overcast,0,2013-11-13 12:15:00
4:35 AM,41.0,37.4,87,30.33,4.0,Calm,Calm,-,N/A,,Overcast,0,2013-11-13 12:35:00
4:55 AM,41.0,39.2,93,30.33,5.0,South,3.5,-,N/A,,Overcast,190,2013-11-13 12:55:00
5:15 AM,41.0,39.2,93,30.32,3.0,South,3.5,-,N/A,,Overcast,190,2013-11-13 13:15:00
5:35 AM,41.0,39.2,93,30.32,3.0,South,3.5,-,N/A,,Overcast,190,2013-11-13 13:35:00
5:55 AM,41.0,39.2,93,30.32,2.5,Calm,Calm,-,N/A,,Overcast,0,2013-11-13 13:55:00
6:15 AM,41.0,39.2,93,30.33,1.8,Calm,Calm,-,N/A,,Overcast,0,2013-11-13 14:15:00
6:35 AM,41.0,37.4,87,30.33,2.0,Calm,Calm,-,N/A,,Overcast,0,2013-11-13 14:35:00
6:55 AM,41.0,39.2,93,30.33,2.0,SSW,3.5,-,N/A,,Overcast,210,2013-11-13 14:55:00
7:15 AM,41.0,39.2,93,30.33,3.0,South,5.8,-,N/A,,Overcast,170,2013-11-13 15:15:00
7:35 AM,42.8,39.2,87,30.34,4.0,South,4.6,-,N/A,,Overcast,180,2013-11-13 15:35:00
7:55 AM,42.8,39.2,87,30.34,4.0,SSW,5.8,-,N/A,,Overcast,200,2013-11-13 15:55:00
8:15 AM,42.8,39.2,87,30.33,4.0,SSW,9.2,-,N/A,,Overcast,200,2013-11-13 16:15:00
8:35 AM,42.8,39.2,87,30.33,5.0,SW,6.9,-,N/A,,Overcast,230,2013-11-13 16:35:00
8:55 AM,44.6,41.0,87,30.33,9.0,SW,6.9,-,N/A,,Overcast,220,2013-11-13 16:55:00
9:15 AM,44.6,39.2,81,30.34,9.0,SW,8.1,-,N/A,,Overcast,220,2013-11-13 17:15:00
9:35 AM,44.6,39.2,81,30.34,10.0,WSW,13.8,-,N/A,,Overcast,240,2013-11-13 17:35:00
9:55 AM,44.6,41.0,87,30.35,10.0,WSW,9.2,-,N/A,,Overcast,240,2013-11-13 17:55:00
10:15 AM,44.6,39.2,81,30.35,10.0,WSW,8.1,-,N/A,,Overcast,250,2013-11-13 18:15:00
10:35 AM,46.4,39.2,76,30.35,10.0,West,9.2,-,N/A,,Overcast,260,2013-11-13 18:35:00
10:55 AM,44.6,39.2,81,30.34,10.0,West,9.2,-,N/A,,Overcast,260,2013-11-13 18:55:00
11:15 AM,44.6,39.2,81,30.35,10.0,WSW,11.5,-,N/A,,Overcast,250,2013-11-13 19:15:00
11:35 AM,46.4,39.2,76,30.35,10.0,WSW,12.7,16.1,N/A,,Overcast,250,2013-11-13 19:35:00
11:55 AM,46.4,39.2,76,30.34,10.0,WSW,13.8,-,N/A,,Overcast,240,2013-11-13 19:55:00
12:15 PM,46.4,39.2,76,30.34,10.0,SW,12.7,-,N/A,,Overcast,230,2013-11-13 20:15:00
12:35 PM,46.4,39.2,76,30.34,10.0,WSW,13.8,-,N/A,,Overcast,240,2013-11-13 20:35:00
12:55 PM,44.6,37.4,76,30.34,10.0,SW,11.5,-,N/A,,Overcast,230,2013-11-13 20:55:00
1:15 PM,44.6,37.4,76,30.34,10.0,SW,11.5,-,N/A,,Overcast,230,2013-11-13 21:15:00
1:35 PM,44.6,37.4,76,30.34,10.0,WSW,9.2,-,N/A,,Overcast,250,2013-11-13 21:35:00
1:55 PM,44.6,37.4,76,30.34,10.0,WSW,11.5,-,N/A,,Overcast,240,2013-11-13 21:55:00
2:15 PM,44.6,37.4,76,30.34,10.0,WSW,5.8,-,N/A,,Overcast,250,2013-11-13 22:15:00
2:35 PM,44.6,37.4,76,30.34,10.0,WSW,5.8,-,N/A,,Overcast,250,2013-11-13 22:35:00
2:55 PM,44.6,37.4,76,30.34,10.0,West,5.8,-,N/A,,Overcast,260,2013-11-13 22:55:00
3:15 PM,44.6,35.6,71,30.33,10.0,WSW,3.5,-,N/A,,Overcast,250,2013-11-13 23:15:00
3:35 PM,44.6,37.4,76,30.33,10.0,West,5.8,-,N/A,,Overcast,260,2013-11-13 23:35:00
3:55 PM,44.6,37.4,76,30.33,10.0,West,5.8,-,N/A,,Overcast,260,2013-11-13 23:55:00
4:15 PM,42.8,37.4,81,30.34,10.0,WSW,4.6,-,N/A,,Overcast,250,2013-11-14 00:15:00
4:35 PM,42.8,37.4,81,30.34,10.0,WSW,3.5,-,N/A,,Overcast,240,2013-11-14 00:35:00
4:55 PM,42.8,37.4,81,30.34,10.0,Calm,Calm,-,N/A,,Overcast,0,2013-11-14 00:55:00
5:15 PM,42.8,37.4,81,30.33,10.0,Calm,Calm,-,N/A,,Overcast,0,2013-11-14 01:15:00
5:35 PM,42.8,37.4,81,30.33,10.0,Calm,Calm,-,N/A,,Overcast,0,2013-11-14 01:35:00
5:55 PM,42.8,35.6,76,30.32,10.0,Calm,Calm,-,N/A,,Overcast,0,2013-11-14 01:55:00
6:15 PM,42.8,37.4,81,30.33,10.0,Calm,Calm,-,N/A,,Overcast,0,2013-11-14 02:15:00
6:35 PM,42.8,37.4,81,30.33,10.0,Calm,Calm,-,N/A,,Overcast,0,2013-11-14 02:35:00
6:55 PM,42.8,37.4,81,30.33,10.0,Calm,Calm,-,N/A,,Overcast,0,2013-11-14 02:55:00
7:15 PM,42.8,37.4,81,30.32,10.0,Calm,Calm,-,N/A,,Overcast,0,2013-11-14 03:15:00
7:35 PM,42.8,37.4,81,30.31,10.0,Calm,Calm,-,N/A,,Overcast,0,2013-11-14 03:35:00
7:55 PM,42.8,37.4,81,30.31,10.0,Calm,Calm,-,N/A,,Overcast,0,2013-11-14 03:55:00
8:15 PM,42.8,37.4,81,30.31,10.0,Calm,Calm,-,N/A,,Overcast,0,2013-11-14 04:15:00
8:35 PM,42.8,37.4,81,30.30,10.0,Calm,Calm,-,N/A,,Overcast,0,2013-11-14 04:35:00
8:55 PM,42.8,37.4,81,30.30,10.0,Calm,Calm,-,N/A,,Overcast,0,2013-11-14 04:55:00
9:15 PM,42.8,37.4,81,30.29,10.0,Calm,Calm,-,N/A,,Overcast,0,2013-11-14 05:15:00
9:35 PM,41.0,37.4,87,30.28,10.0,Calm,Calm,-,N/A,,Overcast,0,2013-11-14 05:35:00
9:55 PM,41.0,37.4,87,30.28,10.0,Calm,Calm,-,N/A,,Overcast,0,2013-11-14 05:55:00
10:15 PM,42.8,37.4,81,30.27,10.0,Calm,Calm,-,N/A,,Mostly Cloudy,0,2013-11-14 06:15:00
10:35 PM,42.8,37.4,81,30.26,10.0,Calm,Calm,-,N/A,,Overcast,0,2013-11-14 06:35:00
10:55 PM,42.8,39.2,87,30.26,10.0,South,4.6,-,N/A,,Overcast,180,2013-11-14 06:55:00
11:15 PM,41.0,33.8,76,30.26,10.0,South,3.5,-,N/A,,Overcast,180,2013-11-14 07:15:00
11:35 PM,41.0,37.4,87,30.26,10.0,Calm,Calm,-,N/A,,Overcast,0,2013-11-14 07:35:00
11:55 PM,41.0,37.4,87,30.25,10.0,Calm,Calm,-,N/A,,Overcast,0,2013-11-14 07:55:00